TimeEDT,TemperatureF,Dew PointF,Humidity,Sea Level PressureIn,VisibilityMPH,Wind Direction,Wind SpeedMPH,Gust SpeedMPH,PrecipitationIn,Events,Conditions,WindDirDegrees,DateUTC
12:54 AM,62.1,60.1,93,29.53,10.0,Calm,Calm,-,0.00,,Overcast,0,2013-06-29 04:54:00
1:03 AM,60.8,60.8,100,29.53,10.0,Calm,Calm,-,N/A,,Mostly Cloudy,0,2013-06-29 05:03:00
1:43 AM,60.8,60.8,100,29.53,10.0,Calm,Calm,-,N/A,,Overcast,0,2013-06-29 05:43:00
1:54 AM,61.0,60.1,97,29.53,10.0,Calm,Calm,-,N/A,,Overcast,0,2013-06-29 05:54:00
2:04 AM,60.8,60.8,100,29.52,10.0,Calm,Calm,-,0.01,Rain,Light Rain,0,2013-06-29 06:04:00
2:47 AM,60.8,60.8,100,29.52,10.0,Calm,Calm,-,0.01,Rain,Light Rain,0,2013-06-29 06:47:00
2:54 AM,61.0,60.1,97,29.52,10.0,Calm,Calm,-,0.01,Rain,Light Rain,0,2013-06-29 06:54:00
3:54 AM,62.1,60.1,93,29.53,10.0,Calm,Calm,-,0.00,,Overcast,0,2013-06-29 07:54:00
4:47 AM,62.6,60.8,94,29.54,10.0,Calm,Calm,-,N/A,,Overcast,0,2013-06-29 08:47:00
4:54 AM,62.1,60.1,93,29.54,10.0,Calm,Calm,-,N/A,,Overcast,0,2013-06-29 08:54:00
5:54 AM,61.0,61.0,100,29.56,10.0,Calm,Calm,-,0.00,,Overcast,0,2013-06-29 09:54:00
6:54 AM,63.0,61.0,93,29.57,10.0,Calm,Calm,-,N/A,,Overcast,0,2013-06-29 10:54:00
7:54 AM,66.0,61.0,84,29.57,10.0,Calm,Calm,-,N/A,,Mostly Cloudy,0,2013-06-29 11:54:00
8:49 AM,68.0,62.6,83,29.57,10.0,Calm,Calm,-,N/A,,Mostly Cloudy,0,2013-06-29 12:49:00
8:54 AM,68.0,63.0,84,29.57,10.0,Calm,Calm,-,N/A,,Mostly Cloudy,0,2013-06-29 12:54:00
9:54 AM,71.1,63.0,75,29.56,10.0,Calm,Calm,-,N/A,,Overcast,0,2013-06-29 13:54:00
10:22 AM,71.6,64.4,78,29.56,10.0,Calm,Calm,-,N/A,,Overcast,0,2013-06-29 14:22:00
10:31 AM,73.4,64.4,73,29.56,10.0,Variable,4.6,-,N/A,,Overcast,0,2013-06-29 14:31:00
10:54 AM,73.0,64.0,73,29.55,10.0,Calm,Calm,-,N/A,,Mostly Cloudy,0,2013-06-29 14:54:00
11:54 AM,77.0,64.9,66,29.54,10.0,WSW,3.5,-,N/A,,Partly Cloudy,250,2013-06-29 15:54:00
12:54 PM,78.1,63.0,60,29.54,10.0,Variable,4.6,-,N/A,,Mostly Cloudy,0,2013-06-29 16:54:00
1:54 PM,79.0,59.0,50,29.53,10.0,WSW,8.1,18.4,N/A,,Clear,250,2013-06-29 17:54:00
2:54 PM,80.1,62.1,54,29.53,10.0,Variable,6.9,-,N/A,,Partly Cloudy,0,2013-06-29 18:54:00
3:50 PM,78.8,60.8,54,29.55,10.0,Calm,Calm,-,N/A,Thunderstorm,Scattered Clouds,0,2013-06-29 19:50:00
3:54 PM,77.0,61.0,58,29.54,10.0,Calm,Calm,-,N/A,Thunderstorm,Mostly Cloudy,0,2013-06-29 19:54:00
4:50 PM,69.8,60.8,73,29.59,10.0,Variable,3.5,-,0.00,,Overcast,0,2013-06-29 20:50:00
4:54 PM,70.0,61.0,73,29.59,10.0,Variable,4.6,-,0.00,,Overcast,0,2013-06-29 20:54:00
5:54 PM,70.0,64.0,81,29.59,2.5,Calm,Calm,-,0.03,Rain,Light Rain,0,2013-06-29 21:54:00
6:04 PM,69.8,64.4,83,29.60,10.0,Calm,Calm,-,0.00,Rain,Light Rain,0,2013-06-29 22:04:00
6:37 PM,69.8,64.4,83,29.61,1.8,Variable,3.5,-,0.05,Rain,Heavy Rain,0,2013-06-29 22:37:00
6:47 PM,68.0,64.4,88,29.61,3.0,SSW,3.5,-,0.07,Rain,Light Rain,210,2013-06-29 22:47:00
6:54 PM,66.9,64.0,90,29.61,6.0,Calm,Calm,-,0.07,Rain,Light Rain,0,2013-06-29 22:54:00
7:54 PM,68.0,64.9,90,29.63,10.0,NNE,3.5,-,0.01,,Overcast,20,2013-06-29 23:54:00
8:03 PM,66.2,64.4,94,29.64,10.0,NNE,3.5,-,N/A,,Overcast,20,2013-06-30 00:03:00
8:08 PM,66.2,64.4,94,29.64,1.8,Calm,Calm,-,0.07,Rain,Heavy Rain,0,2013-06-30 00:08:00
8:16 PM,66.2,64.4,94,29.65,2.5,Calm,Calm,-,0.10,Rain,Light Rain,0,2013-06-30 00:16:00
8:27 PM,66.2,64.4,94,29.66,1.2,Calm,Calm,-,0.18,Rain,Rain,0,2013-06-30 00:27:00
8:37 PM,66.2,64.4,94,29.66,3.0,Calm,Calm,-,0.21,Rain,Rain,0,2013-06-30 00:37:00
8:54 PM,66.0,64.0,93,29.66,6.0,Calm,Calm,-,0.26,Rain,Light Rain,0,2013-06-30 00:54:00
9:54 PM,64.9,64.0,97,29.68,10.0,Calm,Calm,-,0.00,,Overcast,0,2013-06-30 01:54:00
10:54 PM,64.0,63.0,96,29.69,9.0,Calm,Calm,-,0.01,,Mostly Cloudy,0,2013-06-30 02:54:00
11:19 PM,64.4,62.6,94,29.69,7.0,Calm,Calm,-,N/A,,Overcast,0,2013-06-30 03:19:00
11:30 PM,64.4,62.6,94,29.69,9.0,Calm,Calm,-,N/A,,Overcast,0,2013-06-30 03:30:00
11:54 PM,64.0,62.1,93,29.70,8.0,Calm,Calm,-,N/A,,Overcast,0,2013-06-30 03:54:00